Regional Weather Roundup
Issued by NWS Raleigh/Durham, NC

Home | Current Version | Previous Version | Text Only | Print | Product List | Glossary On
Versions: 1 2 3 4 5 6 7 8 9 10 11 12 13 14 15 16 17 18 19 20 21 22 23 24 25 26 27 28 29 30 31 32 33 34 35 36 37 38 39 40 41 42 43 44 45 46 47 48 49 50
000
ASUS42 KRAH 030510
RWRRAH
NORTH CAROLINA WEATHER ROUNDUP
NATIONAL WEATHER SERVICE RALEIGH NC
100 AM EDT WED JUN 03 2015

NOTE: "FAIR" INDICATES FEW OR NO CLOUDS BELOW 12,000 FEET WITH NO
SIGNIFICANT WEATHER AND/OR OBSTRUCTIONS TO VISIBILITY.

NCZ001-053-055-056-065-067-030600-
WESTERN NORTH CAROLINA

CITY           SKY/WX    TMP DP  RH WIND       PRES   REMARKS
ASHEVILLE      CLOUDY    61  58  90 S3        30.06S
JEFFERSON      CLOUDY    57  57 100 CALM      30.10F
MORGANTON      MOCLDY    60  60 100 CALM      30.08F FOG
HICKORY        MOCLDY    62  60  93 CALM      30.03F FOG
RUTHERFORDTON  CLOUDY    61  61 100 CALM      30.04F
MOUNT AIRY     CLOUDY    66  63  90 NE6       30.07R
BOONE          CLOUDY    54  54 100 CALM      30.11F FOG
$$

NCZ021-022-025-041-071-084-088-030600-
CENTRAL NORTH CAROLINA

CITY           SKY/WX    TMP DP  RH WIND       PRES   REMARKS
CHARLOTTE      CLOUDY    65  61  87 N6        30.01F
GREENSBORO     CLOUDY    65  64  97 NE8       30.03S
WINSTON-SALEM  CLOUDY    65  62  90 E3        30.05S
RALEIGH-DURHAM CLOUDY    68  65  90 E5        30.02S
FORT BRAGG     LGT RAIN  66  65  95 N5        30.00S
FAYETTEVILLE   CLOUDY    67  66  97 NE5       30.00S
BURLINGTON     CLOUDY    67  65  93 N9        30.02R
LAURINBURG     RAIN      66  64  93 E3        29.99F
$$

NCZ011-015-027-028-043-044-047-080-103-030600-
NORTHEASTERN NORTH CAROLINA

CITY           SKY/WX    TMP DP  RH WIND       PRES   REMARKS
ROCKY MT-WILSO CLOUDY    70  69  97 CALM      30.01F
GREENVILLE     RAIN      72  72 100 CALM      30.03S
WASHINGTON     LGT RAIN  69  69  98 CALM      30.01F
ELIZABETH CITY CLOUDY    68  67  96 NE8       30.03F
MANTEO         CLOUDY    69  68  97 NE3       30.03S
CAPE HATTERAS  CLOUDY    72  67  84 SW3       30.01F
$$

NCZ078-087-090-091-093-098-101-030600-
SOUTHEASTERN NORTH CAROLINA

CITY           SKY/WX    TMP DP  RH WIND       PRES   REMARKS
LUMBERTON      TSTM      68  66  93 NW10      29.99F FOG
GOLDSBORO      LGT RAIN  70  70 100 CALM      29.99S
KINSTON        LGT RAIN  71  69  95 E3        30.01F
KENANSVILLE    CLOUDY    69  68  97 CALM      30.01F FOG
NEW BERN       CLOUDY    69  67  93 CALM      30.01F FOG
CHERRY POINT   CLOUDY    71  68  90 SE5       30.01F
BEAUFORT       CLOUDY    73  65  75 SE3       30.00F
JACKSONVILLE   CLOUDY    69  68  96 CALM      29.99F
WILMINGTON     CLOUDY    72  70  93 NE3       29.98F
$$



USA.gov is the U.S. government's official web portal to all federal, state and local government web resources and services.